Showing default

GAOFEN 9, 40894

Orbit data source: Space-Track

GAOFEN 9, 40894 is a payload satellite owned by GGKGJ (CN) in SSO that was launched on Mon, 14 Sep 2015 UTC via a CHANG ZHENG 2D launch vehicle from the Jiuquan Satellite Launch Center, China (JSC). Payload-class satellites include a variety of spacecraft equipped with specific instruments for various scientific and technological missions. These include communications satellites like Starlink; space stations such as the ISS; scientific satellites like the Hubble; Earth observation satellites from companies like Planet Labs, Umbra, and HawkEye 360; GPS; miniature CubeSats for education and research; and military/defense satellites.

Loading next visibility...
Identifier
40894, 2015-047A
Orbit
SSO
Country
Flag of CNCN / PRC
Related business
Manufacturer
DFH
Mission
Operational Defense Imaging
Bus & Motor
CAST-3000, AOCS
Mass
~1,700 kg wet, ~1,200 kg dry
Launch date (UTC)
2015-09-14 (11 years ago)
Launch vehicle
CHANG ZHENG 2D
Launch site
Jiuquan Satellite Launch Center, China (JSC)
Object type
Payload
Rocket body
Debris
Shape & HBR
Box + 2 Pan, 2.0 m
Radar Cross Section
4.991 m², Large (>1 m²)

Expand to show TLE details & history
Last TLE update: 8 hours ago

TLE from 8 hours ago
0 GAOFEN 9
1 40894U 15047A   26258.27558941  .00000653  00000-0  86139-4 0  9991
2 40894  97.6221 289.8575 0026669 201.4032 158.6070 14.83020871593546
Epoch: 2026-09-15T06:36Z
TLE epoch observation values (Epoch: 2026-09-15T06:36:50.925Z)
Latitude
0.00007°
Longitude
-163.59856°
Altitude
640.226 km
Speed
7.529 km/s
True Right ascension
19h 19m 25s
True Declination
0° 00' 00"
Sunlit
Object was in full shadow at epoch
Visualization orbit readout
Latitude
Unknown
Longitude
Unknown
Altitude
Unknown
Speed
Unknown
Apparent Right ascension
Unknown
Apparent Declination
Unknown
Sunlit
N/A
Visualization observer readout
Local Sidereal Time
07:30:13
Azimuth
Unknown
Elevation
Unknown
Doppler factor
Unknown
Orbital elements
Apogee altitude
635.484 km
Perigee altitude
598.175 km
Semi-major axis
6,994.966 km
Eccentricity
0.00267
Inclination
97.6221°
RAAN
289.8575°
Arg. of periapsis
201.4032°
True anomaly
158.71813°
Mean anomaly
158.607°
Eccentric anomaly
158.6626°
Mean motion
3.70992 °/min
Orbital period
97.04 mins
BSTAR
0.000086139
Loading maneuver chart data...
Computing Atmospheric mass density...
Loading historical data...
Loading historical data...
Loading historical data...
Loading historical data...
Loading historical data...
Loading historical data...
Loading historical data...
Other satellites on launch #47 in the year 2015 (2015-09-14 UTC)

Documentation

Showing up to 5 results
|